Back to catalog

STARLINK-35594

AliveCommunicationsVLEO
NORAD 66157·PAYLOAD·🇺🇸 United States

Launched Oct 25, 2025 from Cape Canaveral Space Force Station

Loading…

Next Passes (next 24 hours)

TLE

FreshSource: CelesTrak SupGP

Epoch: Sep 14, 2026, 21:30 UTC

1 66157C 25240M   26257.89631944  .00056500  00000+0  16695-2 0  2575
2 66157  53.1567 260.0372 0001475  97.0432 211.5988 15.34358342    19

Track STARLINK-35594 in real time with AllMySat

Download on the App Store